TimeEST,TemperatureF,Dew PointF,Humidity,Sea Level PressureIn,VisibilityMPH,Wind Direction,Wind SpeedMPH,Gust SpeedMPH,PrecipitationIn,Events,Conditions,WindDirDegrees,DateUTC
12:15 AM,37.4,37.4,100,29.61,10.0,NNW,5.8,-,N/A,,Overcast,330,2013-02-28 05:15:00
12:35 AM,37.4,37.4,100,29.60,10.0,North,4.6,-,N/A,,Overcast,350,2013-02-28 05:35:00
12:55 AM,37.4,37.4,100,29.59,9.0,North,6.9,-,N/A,,Overcast,10,2013-02-28 05:55:00
1:15 AM,35.6,35.6,100,29.59,3.0,North,5.8,-,N/A,,Overcast,360,2013-02-28 06:15:00
1:35 AM,35.6,35.6,100,29.60,5.0,NNW,4.6,-,N/A,,Overcast,340,2013-02-28 06:35:00
1:55 AM,35.6,35.6,100,29.61,9.0,Calm,Calm,-,N/A,,Overcast,0,2013-02-28 06:55:00
2:35 AM,35.6,35.6,100,29.62,8.0,SW,5.8,-,N/A,,Overcast,230,2013-02-28 07:35:00
2:55 AM,35.6,35.6,100,29.60,1.5,Calm,Calm,-,N/A,,Overcast,0,2013-02-28 07:55:00
3:15 AM,35.6,35.6,100,29.61,1.0,Calm,Calm,-,N/A,,Overcast,0,2013-02-28 08:15:00
3:35 AM,35.6,35.6,100,29.62,2.5,NNW,3.5,-,N/A,,Overcast,340,2013-02-28 08:35:00
3:55 AM,35.6,35.6,100,29.61,1.8,Calm,Calm,-,N/A,,Overcast,0,2013-02-28 08:55:00
4:15 AM,35.6,35.6,100,29.61,1.0,Calm,Calm,-,N/A,,Overcast,0,2013-02-28 09:15:00
4:35 AM,35.6,35.6,100,29.61,0.2,Calm,Calm,-,N/A,Fog,Fog,0,2013-02-28 09:35:00
4:55 AM,35.6,35.6,100,29.61,0.8,Calm,Calm,-,N/A,,Overcast,0,2013-02-28 09:55:00
5:35 AM,35.6,35.6,100,29.60,0.2,Calm,Calm,-,N/A,Fog,Fog,0,2013-02-28 10:35:00
5:55 AM,35.6,35.6,100,29.61,0.2,Calm,Calm,-,N/A,Fog,Fog,0,2013-02-28 10:55:00
6:15 AM,35.6,35.6,100,29.61,0.2,Calm,Calm,-,N/A,Rain,Light Rain,0,2013-02-28 11:15:00
6:35 AM,35.6,35.6,100,29.62,0.2,Calm,Calm,-,0.01,Fog,Fog,0,2013-02-28 11:35:00
6:55 AM,35.6,35.6,100,29.62,1.8,Calm,Calm,-,0.01,,Overcast,0,2013-02-28 11:55:00
7:15 AM,35.6,35.6,100,29.62,1.8,Calm,Calm,-,0.01,Rain,Light Rain,0,2013-02-28 12:15:00
7:35 AM,35.6,35.6,100,29.62,2.0,Calm,Calm,-,0.01,,Overcast,0,2013-02-28 12:35:00
7:55 AM,35.6,35.6,100,29.62,3.0,Calm,Calm,-,0.01,,Mostly Cloudy,0,2013-02-28 12:55:00
8:15 AM,37.4,37.4,100,29.62,6.0,Calm,Calm,-,N/A,,Mostly Cloudy,0,2013-02-28 13:15:00
8:35 AM,37.4,37.4,100,29.61,0.8,Calm,Calm,-,N/A,,Overcast,0,2013-02-28 13:35:00
8:55 AM,37.4,37.4,100,29.62,1.2,Calm,Calm,-,N/A,,Light Drizzle,0,2013-02-28 13:55:00
9:15 AM,37.4,37.4,100,29.61,4.0,Calm,Calm,-,N/A,,Overcast,0,2013-02-28 14:15:00
9:35 AM,39.2,39.2,100,29.61,5.0,Calm,Calm,-,N/A,,Mostly Cloudy,0,2013-02-28 14:35:00
9:55 AM,41.0,41.0,100,29.60,8.0,Calm,Calm,-,N/A,,Mostly Cloudy,0,2013-02-28 14:55:00
10:15 AM,42.8,42.8,100,29.60,9.0,Calm,Calm,-,N/A,,Scattered Clouds,0,2013-02-28 15:15:00
10:35 AM,42.8,41.0,93,29.59,9.0,ESE,3.5,-,N/A,,Mostly Cloudy,120,2013-02-28 15:35:00
10:55 AM,42.8,41.0,93,29.59,10.0,SE,3.5,-,N/A,,Mostly Cloudy,130,2013-02-28 15:55:00
11:15 AM,42.8,39.2,87,29.58,10.0,ESE,6.9,-,N/A,,Mostly Cloudy,120,2013-02-28 16:15:00
11:35 AM,42.8,39.2,87,29.57,10.0,ESE,4.6,-,N/A,,Overcast,110,2013-02-28 16:35:00
11:55 AM,44.6,39.2,81,29.56,10.0,SSE,4.6,-,N/A,,Overcast,150,2013-02-28 16:55:00
12:15 PM,44.6,39.2,81,29.56,10.0,SE,4.6,-,N/A,,Overcast,140,2013-02-28 17:15:00
12:35 PM,44.6,39.2,81,29.55,10.0,ESE,5.8,-,N/A,,Overcast,120,2013-02-28 17:35:00
1:15 PM,44.6,39.2,81,29.54,10.0,Calm,Calm,-,N/A,,Overcast,0,2013-02-28 18:15:00
1:35 PM,44.6,39.2,81,29.55,10.0,Calm,Calm,-,N/A,,Overcast,0,2013-02-28 18:35:00
1:55 PM,44.6,39.2,81,29.55,10.0,Calm,Calm,-,N/A,,Overcast,0,2013-02-28 18:55:00
2:15 PM,44.6,39.2,81,29.55,10.0,Calm,Calm,-,N/A,,Overcast,0,2013-02-28 19:15:00
2:35 PM,44.6,37.4,76,29.54,10.0,NNW,3.5,-,N/A,,Mostly Cloudy,330,2013-02-28 19:35:00
2:55 PM,44.6,37.4,76,29.54,10.0,Calm,Calm,-,N/A,,Mostly Cloudy,0,2013-02-28 19:55:00
3:35 PM,44.6,37.4,76,29.53,10.0,Calm,Calm,-,N/A,,Mostly Cloudy,0,2013-02-28 20:35:00
3:55 PM,44.6,37.4,76,29.53,10.0,ENE,3.5,-,N/A,,Partly Cloudy,60,2013-02-28 20:55:00
4:15 PM,44.6,39.2,81,29.53,10.0,Calm,Calm,-,N/A,,Clear,0,2013-02-28 21:15:00
4:35 PM,44.6,39.2,81,29.53,10.0,Calm,Calm,-,N/A,,Mostly Cloudy,0,2013-02-28 21:35:00
4:55 PM,42.8,37.4,81,29.54,9.0,SSW,4.6,-,N/A,,Overcast,210,2013-02-28 21:55:00
5:15 PM,41.0,39.2,93,29.54,10.0,West,3.5,-,N/A,,Overcast,280,2013-02-28 22:15:00
5:35 PM,41.0,39.2,93,29.54,10.0,WSW,4.6,-,N/A,,Overcast,250,2013-02-28 22:35:00
5:55 PM,41.0,37.4,87,29.54,10.0,Calm,Calm,-,N/A,,Overcast,0,2013-02-28 22:55:00
6:15 PM,41.0,37.4,87,29.55,10.0,West,3.5,-,N/A,,Mostly Cloudy,270,2013-02-28 23:15:00
6:35 PM,41.0,37.4,87,29.54,10.0,Calm,Calm,-,N/A,,Overcast,0,2013-02-28 23:35:00
6:55 PM,39.2,37.4,93,29.55,10.0,West,3.5,-,N/A,,Overcast,280,2013-02-28 23:55:00
7:15 PM,39.2,37.4,93,29.55,10.0,WNW,3.5,-,N/A,,Overcast,290,2013-03-01 00:15:00
7:35 PM,39.2,37.4,93,29.55,10.0,Calm,Calm,-,N/A,,Overcast,0,2013-03-01 00:35:00
7:55 PM,39.2,37.4,93,29.55,10.0,NW,3.5,-,N/A,,Overcast,320,2013-03-01 00:55:00
8:15 PM,39.2,37.4,93,29.55,10.0,NNW,4.6,-,N/A,,Overcast,340,2013-03-01 01:15:00
8:35 PM,39.2,37.4,93,29.55,9.0,North,5.8,-,N/A,,Overcast,360,2013-03-01 01:35:00
9:15 PM,39.2,37.4,93,29.55,9.0,NW,3.5,-,N/A,,Scattered Clouds,320,2013-03-01 02:15:00
9:35 PM,39.2,35.6,87,29.55,10.0,NW,4.6,-,N/A,,Overcast,320,2013-03-01 02:35:00
9:55 PM,39.2,35.6,87,29.55,10.0,NNW,4.6,-,N/A,,Overcast,340,2013-03-01 02:55:00
10:15 PM,39.2,35.6,87,29.55,10.0,NNW,4.6,-,N/A,,Overcast,330,2013-03-01 03:15:00
10:35 PM,37.4,35.6,93,29.55,10.0,NNW,5.8,-,N/A,,Overcast,330,2013-03-01 03:35:00
10:55 PM,39.2,35.6,87,29.55,10.0,NW,6.9,-,N/A,,Overcast,320,2013-03-01 03:55:00
11:15 PM,39.2,35.6,87,29.54,10.0,NNW,6.9,-,N/A,,Overcast,340,2013-03-01 04:15:00
11:35 PM,39.2,35.6,87,29.55,10.0,NNW,4.6,-,N/A,,Overcast,330,2013-03-01 04:35:00
11:55 PM,37.4,35.6,93,29.55,10.0,NNW,6.9,-,N/A,,Overcast,330,2013-03-01 04:55:00